Newark, NJ

8:13 AM EDT on August 17, 2017 (GMT -0400)
Newark International

Weather History for KEWR - December, 2013

Change the Weather History Date:

Saturday, December 7, 2013

  Actual Average Record
Temperature  
Mean Temperature 37 °F 39 °F  
Max Temperature 42 °F 46 °F 76 °F (1998)
Min Temperature 31 °F 32 °F 16 °F (1954)
Degree Days  
Heating Degree Days 28 26  
Month to date heating degree days 138 173  
Since 1 July heating degree days 1008 1041  
Cooling Degree Days 0 0  
Month to date cooling degree days 0 0  
Year to date cooling degree days 1337 1192  
Moisture  
Dew Point 27 °F    
Average Humidity 69    
Maximum Humidity 92    
Minimum Humidity 45    
Precipitation  
Precipitation 0.15 in 0.13 in 1.90 in (2011)
Month to date precipitation 0.96 0.92  
Year to date precipitation 39.28 43.36  
Snow  
Snow 0.00 in 0.10 in 1.70 in (1959)
Month to date snowfall 0.0 0.7  
Since 1 July snowfall T 1.1  
Snow Depth 0.00 in    
Sea Level Pressure  
Sea Level Pressure 30.31 in    
Wind  
Wind Speed 11 mph (NNW)    
Max Wind Speed 21 mph    
Max Gust Speed 26 mph    
Visibility 9 miles    
Events Rain    
T = Trace of Precipitation, MM = Missing Value Source: NWS Daily Summary

Daily Weather History Graph

Daily Weather History Graph

Search for Another Location

Airport or City:

Trip Planner

Search our weather history database for the weather conditions in past years. The results will help you decide how hot, cold, wet, or windy it might be!

Date:

Astronomy

Dec. 07, 2013 Rise Set
Actual Time 7:07 AM EST 4:29 PM EST
Civil Twilight 6:36 AM EST 4:59 PM EST
Nautical Twilight 6:02 AM EST 5:34 PM EST
Astronomical Twilight 5:29 AM EST 6:07 PM EST
Moon 10:49 AM EST (12/7) 10:09 PM EST (12/7)
Length of Visible Light 10h 23m
Length of Day
9h 21m
Waxing Crescent, 29% of the Moon is Illuminated
Dec 7
Waxing Crescent
Dec 9
First Quarter
Dec 17
Full
Dec 25
Last Quarter
Jan 1
New

Hourly Weather History & Observations

Time (EST) Temp. Windchill Dew Point Humidity Pressure Visibility Wind Dir Wind Speed Gust Speed Precip Events Conditions
12:51 AM 36.0 °F 26.7 °F 34.0 °F 93% 30.11 in 6.0 mi NNE 15.0 mph - 0.12 in Rain Rain
1:51 AM 36.0 °F 27.5 °F 33.1 °F 89% 30.11 in 10.0 mi NNE 12.7 mph - 0.01 in   Overcast
2:48 AM 35.6 °F 29.9 °F 33.8 °F 93% 30.21 in 3.0 mi North 6.9 mph - 0.01 in Rain Light Rain
2:51 AM 36.0 °F 31.1 °F 34.0 °F 93% 30.20 in 3.0 mi North 5.8 mph - 0.01 in Rain Light Rain
3:03 AM 35.6 °F 29.2 °F 35.6 °F 100% 30.19 in 3.0 mi North 8.1 mph - 0.01 in Rain Light Rain
3:51 AM 36.0 °F 30.3 °F 35.1 °F 97% 30.18 in 8.0 mi North 6.9 mph - 0.02 in   Overcast
4:51 AM 37.0 °F 31.0 °F 34.0 °F 89% 30.20 in 6.0 mi North 8.1 mph - 0.00 in   Light Drizzle
5:24 AM 37.4 °F 30.8 °F 33.8 °F 87% 30.21 in 9.0 mi North 9.2 mph - 0.00 in   Overcast
5:51 AM 37.0 °F 29.8 °F 33.1 °F 86% 30.22 in 10.0 mi NNW 10.4 mph - 0.00 in   Overcast
6:15 AM 37.4 °F 30.8 °F 32.0 °F 81% 30.23 in 10.0 mi North 9.2 mph 17.3 mph N/A   Overcast
6:51 AM 37.0 °F 31.6 °F 32.0 °F 82% 30.25 in 10.0 mi NNW 6.9 mph - N/A   Overcast
7:51 AM 37.0 °F 31.6 °F 30.9 °F 79% 30.27 in 10.0 mi NW 6.9 mph - N/A   Mostly Cloudy
8:51 AM 37.9 °F 31.5 °F 30.9 °F 76% 30.30 in 10.0 mi NW 9.2 mph - N/A   Mostly Cloudy
9:51 AM 39.0 °F 30.6 °F 28.9 °F 67% 30.32 in 10.0 mi NNW 15.0 mph 24.2 mph N/A   Mostly Cloudy
10:51 AM 42.1 °F 34.9 °F 30.0 °F 62% 30.32 in 10.0 mi NW 13.8 mph - N/A   Mostly Cloudy
11:51 AM 39.9 °F 31.1 °F 26.1 °F 58% 30.32 in 10.0 mi WNW 17.3 mph 23.0 mph N/A   Mostly Cloudy
12:51 PM 41.0 °F 32.5 °F 24.1 °F 51% 30.32 in 10.0 mi NNW 17.3 mph - N/A   Scattered Clouds
1:51 PM 41.0 °F 33.1 °F 24.1 °F 51% 30.32 in 10.0 mi NNW 15.0 mph - N/A   Scattered Clouds
2:51 PM 41.0 °F 32.8 °F 21.0 °F 45% 30.33 in 10.0 mi NNW 16.1 mph - N/A   Scattered Clouds
3:51 PM 39.0 °F 31.8 °F 21.0 °F 49% 30.35 in 10.0 mi WNW 11.5 mph 18.4 mph N/A   Scattered Clouds
4:51 PM 37.0 °F 30.4 °F 21.0 °F 52% 30.38 in 10.0 mi WNW 9.2 mph 20.7 mph N/A   Scattered Clouds
5:51 PM 36.0 °F 28.5 °F 21.0 °F 55% 30.41 in 10.0 mi WNW 10.4 mph - N/A   Scattered Clouds
6:51 PM 36.0 °F 29.6 °F 21.0 °F 55% 30.43 in 10.0 mi WNW 8.1 mph 18.4 mph N/A   Scattered Clouds
7:51 PM 35.1 °F 28.6 °F 21.9 °F 59% 30.47 in 10.0 mi West 8.1 mph - N/A   Mostly Cloudy
8:51 PM 34.0 °F 26.6 °F 18.0 °F 52% 30.49 in 10.0 mi WNW 9.2 mph - N/A   Mostly Cloudy
9:51 PM 34.0 °F 25.5 °F 16.0 °F 48% 30.50 in 10.0 mi NW 11.5 mph 19.6 mph N/A   Mostly Cloudy
10:51 PM 33.1 °F 24.4 °F 15.1 °F 48% 30.52 in 10.0 mi NW 11.5 mph - N/A   Mostly Cloudy
11:51 PM 32.0 °F 23.6 °F 15.1 °F 50% 30.52 in 10.0 mi NNW 10.4 mph - N/A   Scattered Clouds